Location: Kellogg
(38.0159°N, 90.0546°W)
Time: 17:09:38
(UTC+00:00)

Courier 1B - Pass Details

Date: 13 September 2024
Orbit: 962 x 1208 km, 28.3° (Epoch: 11 October)

Event Time Altitude Azimuth Distance (km) Brightness Sun altitude
Rises 00:51:03 0° 264° (W) 4,078 12.4 -8.5°
Reaches altitude 10° 00:54:12 10° 254° (WSW) 3,130 11.3 -9.1°
Maximum altitude 01:00:56 32° 195° (SSW) 1,929 9.1 -10.4°
Drops below altitude 10° 01:07:40 10° 135° (SE) 3,117 9.6 -11.7°
Enters shadow 01:07:57 - 134° (SE) 3,199 9.7 -11.7°
